TimeEST,TemperatureF,Dew PointF,Humidity,Sea Level PressureIn,VisibilityMPH,Wind Direction,Wind SpeedMPH,Gust SpeedMPH,PrecipitationIn,Events,Conditions,WindDirDegrees,DateUTC
12:15 AM,12.2,3.2,67,30.16,10.0,Calm,Calm,-,N/A,,Overcast,0,2014-02-11 05:15:00
12:35 AM,10.4,3.2,73,30.16,10.0,Calm,Calm,-,N/A,,Overcast,0,2014-02-11 05:35:00
12:55 AM,10.4,3.2,73,30.16,10.0,North,4.6,-,N/A,,Overcast,10,2014-02-11 05:55:00
1:15 AM,10.4,1.4,67,30.16,10.0,NNE,4.6,-,N/A,,Overcast,30,2014-02-11 06:15:00
1:35 AM,10.4,3.2,73,30.17,10.0,North,3.5,-,N/A,,Overcast,10,2014-02-11 06:35:00
1:55 AM,10.4,3.2,73,30.17,10.0,NNE,3.5,-,N/A,,Overcast,30,2014-02-11 06:55:00
2:15 AM,10.4,3.2,73,30.17,10.0,Calm,Calm,-,N/A,,Overcast,0,2014-02-11 07:15:00
2:35 AM,10.4,1.4,67,30.17,10.0,Calm,Calm,-,N/A,,Overcast,0,2014-02-11 07:35:00
2:55 AM,8.6,1.4,73,30.17,10.0,South,3.5,-,N/A,,Mostly Cloudy,180,2014-02-11 07:55:00
3:15 AM,6.8,1.4,79,30.17,10.0,SSE,3.5,-,N/A,,Clear,150,2014-02-11 08:15:00
3:35 AM,6.8,1.4,79,30.18,10.0,SE,3.5,-,N/A,,Mostly Cloudy,140,2014-02-11 08:35:00
3:55 AM,6.8,1.4,79,30.18,10.0,Calm,Calm,-,N/A,,Overcast,0,2014-02-11 08:55:00
4:15 AM,6.8,3.2,85,30.18,8.0,Calm,Calm,-,N/A,,Overcast,0,2014-02-11 09:15:00
4:35 AM,6.8,3.2,85,30.19,5.0,Calm,Calm,-,N/A,,Overcast,0,2014-02-11 09:35:00
4:55 AM,6.8,5.0,92,30.19,10.0,Calm,Calm,-,N/A,,Overcast,0,2014-02-11 09:55:00
5:15 AM,6.8,5.0,92,30.19,10.0,Calm,Calm,-,N/A,,Partly Cloudy,0,2014-02-11 10:15:00
5:35 AM,6.8,3.2,85,30.20,10.0,Calm,Calm,-,N/A,,Clear,0,2014-02-11 10:35:00
5:55 AM,6.8,-0.4,72,30.20,10.0,Calm,Calm,-,N/A,,Mostly Cloudy,0,2014-02-11 10:55:00
6:15 AM,3.2,1.4,92,30.21,10.0,Calm,Calm,-,N/A,,Overcast,0,2014-02-11 11:15:00
6:35 AM,3.2,1.4,92,30.21,10.0,Calm,Calm,-,N/A,,Overcast,0,2014-02-11 11:35:00
6:55 AM,5.0,-2.2,72,30.22,10.0,Calm,Calm,-,N/A,,Mostly Cloudy,0,2014-02-11 11:55:00
7:15 AM,3.2,1.4,92,30.22,10.0,South,3.5,-,N/A,,Partly Cloudy,180,2014-02-11 12:15:00
7:35 AM,6.8,5.0,92,30.23,10.0,Calm,Calm,-,N/A,,Mostly Cloudy,0,2014-02-11 12:35:00
7:55 AM,6.8,3.2,85,30.24,10.0,East,4.6,-,N/A,,Scattered Clouds,90,2014-02-11 12:55:00
8:15 AM,8.6,-0.4,67,30.24,10.0,South,4.6,-,N/A,,Mostly Cloudy,170,2014-02-11 13:15:00
8:35 AM,8.6,-0.4,67,30.25,10.0,Calm,Calm,-,N/A,,Overcast,0,2014-02-11 13:35:00
8:55 AM,8.6,-0.4,67,30.25,10.0,Calm,Calm,-,N/A,,Overcast,0,2014-02-11 13:55:00
9:15 AM,8.6,1.4,73,30.26,7.0,NNE,4.6,-,N/A,,Overcast,20,2014-02-11 14:15:00
9:35 AM,8.6,3.2,79,30.27,3.0,North,4.6,-,N/A,,Overcast,10,2014-02-11 14:35:00
9:55 AM,10.4,1.4,67,30.27,7.0,North,8.1,-,N/A,,Overcast,360,2014-02-11 14:55:00
10:15 AM,8.6,1.4,73,30.28,8.0,North,6.9,-,N/A,,Overcast,360,2014-02-11 15:15:00
10:35 AM,10.4,1.4,67,30.28,9.0,NNE,6.9,-,N/A,,Overcast,20,2014-02-11 15:35:00
10:55 AM,10.4,1.4,67,30.28,10.0,WNW,6.9,-,N/A,,Overcast,300,2014-02-11 15:55:00
11:15 AM,10.4,1.4,67,30.28,8.0,NNW,4.6,-,N/A,,Overcast,340,2014-02-11 16:15:00
11:35 AM,10.4,3.2,73,30.28,10.0,North,3.5,-,N/A,,Overcast,10,2014-02-11 16:35:00
11:55 AM,12.2,3.2,67,30.27,5.0,Calm,Calm,-,N/A,,Overcast,0,2014-02-11 16:55:00
12:15 PM,12.2,3.2,67,30.27,8.0,Calm,Calm,-,N/A,,Overcast,0,2014-02-11 17:15:00
12:35 PM,12.2,3.2,67,30.27,10.0,Calm,Calm,-,N/A,,Overcast,0,2014-02-11 17:35:00
12:55 PM,12.2,3.2,67,30.26,10.0,Calm,Calm,-,N/A,,Overcast,0,2014-02-11 17:55:00
1:15 PM,14.0,5.0,67,30.26,10.0,NNE,9.2,-,N/A,,Overcast,30,2014-02-11 18:15:00
1:35 PM,14.0,3.2,62,30.26,10.0,North,5.8,-,N/A,,Overcast,10,2014-02-11 18:35:00
1:55 PM,15.8,1.4,53,30.25,10.0,North,5.8,-,N/A,,Overcast,10,2014-02-11 18:55:00
2:15 PM,15.8,1.4,53,30.25,10.0,North,6.9,-,N/A,,Overcast,350,2014-02-11 19:15:00
2:35 PM,15.8,1.4,53,30.26,10.0,WNW,5.8,-,N/A,,Mostly Cloudy,300,2014-02-11 19:35:00
2:55 PM,15.8,1.4,53,30.26,10.0,NW,6.9,-,N/A,,Mostly Cloudy,310,2014-02-11 19:55:00
3:15 PM,17.6,-0.4,45,30.26,10.0,NNW,4.6,-,N/A,,Overcast,330,2014-02-11 20:15:00
3:35 PM,17.6,-0.4,45,30.27,10.0,North,9.2,-,N/A,,Mostly Cloudy,10,2014-02-11 20:35:00
3:55 PM,17.6,-0.4,45,30.27,10.0,NNW,6.9,-,N/A,,Mostly Cloudy,330,2014-02-11 20:55:00
4:15 PM,17.6,-0.4,45,30.27,10.0,NW,12.7,17.3,N/A,,Partly Cloudy,310,2014-02-11 21:15:00
4:35 PM,15.8,1.4,53,30.27,10.0,NNW,8.1,-,N/A,,Clear,330,2014-02-11 21:35:00
4:55 PM,15.8,1.4,53,30.28,10.0,NNW,5.8,-,N/A,,Clear,330,2014-02-11 21:55:00
5:15 PM,14.0,1.4,57,30.29,10.0,NNW,5.8,-,N/A,,Clear,330,2014-02-11 22:15:00
5:35 PM,12.2,-0.4,57,30.30,10.0,NNW,6.9,-,N/A,,Partly Cloudy,330,2014-02-11 22:35:00
5:55 PM,12.2,1.4,62,30.31,10.0,NW,6.9,-,N/A,,Partly Cloudy,320,2014-02-11 22:55:00
6:15 PM,12.2,1.4,62,30.32,10.0,NW,4.6,-,N/A,,Clear,310,2014-02-11 23:15:00
6:35 PM,10.4,-0.4,62,30.33,10.0,NW,4.6,-,N/A,,Clear,320,2014-02-11 23:35:00
6:55 PM,10.4,1.4,67,30.34,10.0,NW,5.8,-,N/A,,Clear,320,2014-02-11 23:55:00
7:15 PM,10.4,-0.4,62,30.35,10.0,NW,4.6,-,N/A,,Clear,320,2014-02-12 00:15:00
7:35 PM,8.6,-0.4,67,30.35,10.0,NNW,4.6,-,N/A,,Clear,340,2014-02-12 00:35:00
7:55 PM,8.6,-0.4,67,30.36,10.0,North,5.8,-,N/A,,Clear,350,2014-02-12 00:55:00
8:15 PM,8.6,-0.4,67,30.37,10.0,North,5.8,-,N/A,,Clear,350,2014-02-12 01:15:00
8:35 PM,8.6,-0.4,67,30.38,10.0,North,4.6,-,N/A,,Clear,350,2014-02-12 01:35:00
8:55 PM,6.8,-0.4,72,30.39,10.0,NNW,4.6,-,N/A,,Clear,340,2014-02-12 01:55:00
9:15 PM,6.8,-0.4,72,30.39,10.0,NW,3.5,-,N/A,,Clear,320,2014-02-12 02:15:00
9:35 PM,3.2,-2.2,78,30.41,10.0,Calm,Calm,-,N/A,,Mostly Cloudy,0,2014-02-12 02:35:00
9:55 PM,3.2,-2.2,78,30.41,10.0,ESE,3.5,-,N/A,,Mostly Cloudy,120,2014-02-12 02:55:00
10:15 PM,1.4,-0.4,92,30.41,10.0,Calm,Calm,-,N/A,,Partly Cloudy,0,2014-02-12 03:15:00
10:35 PM,3.2,1.4,92,30.42,10.0,Calm,Calm,-,N/A,,Clear,0,2014-02-12 03:35:00
10:55 PM,1.4,-2.2,85,30.42,10.0,Calm,Calm,-,N/A,,Clear,0,2014-02-12 03:55:00
11:15 PM,1.4,-2.2,85,30.42,10.0,Calm,Calm,-,N/A,,Clear,0,2014-02-12 04:15:00
11:35 PM,-0.4,-5.8,78,30.43,10.0,Calm,Calm,-,N/A,,Clear,0,2014-02-12 04:35:00
11:55 PM,3.2,-0.4,85,30.44,10.0,Calm,Calm,-,N/A,,Clear,0,2014-02-12 04:55:00